EW8829 Weather Reports


time (UTC)temp
C
wind
direction
speed
KPH
gust
KPH
rain 1hr
cm
rain 24hr
cm
rain mn
cm
humidity
%
barometer
mb
20260506231121 7 16 3.2 4.8 0.00 0.76 0.76 97 1008.8
20260506230617 7 51 1.6 3.2 0.00 0.76 0.76 97 1008.7
20260506230114 7 80 1.6 3.2 0.00 0.76 0.76 98 1008.3
20260506225610 7 61 3.2 3.2 0.00 0.76 0.76 97 1008.5
20260506225107 7 74 4.8 4.8 0.00 0.76 0.76 97 1008.4
20260506224604 7 48 1.6 3.2 0.00 0.76 0.76 97 1008.5
20260506224100 7 70 1.6 3.2 0.00 0.76 0.76 98 1008.3
20260506223556 7 36 3.2 3.2 0.00 0.76 0.76 98 1008.3
20260506223053 7 40 1.6 4.8 0.00 0.76 0.76 98 1008.0
20260506222550 7 341 1.6 4.8 0.00 0.76 0.76 98 1008.0
20260506222046 7 112 6.4 6.4 0.00 0.76 0.76 98 1007.9
20260506221544 7 25 6.4 6.4 0.00 0.76 0.76 98 1008.3
20260506221042 7 37 4.8 6.4 0.00 0.76 0.76 98 1008.0
20260506220537 7 91 4.8 4.8 0.00 0.76 0.76 98 1008.2
20260506220033 7 20 4.8 6.4 0.00 0.76 0.76 98 1007.8
20260506215530 7 26 4.8 8.0 0.00 0.76 0.76 98 1007.8
20260506215026 7 9 4.8 6.4 0.00 0.76 0.76 98 1008.1
20260506214523 7 30 4.8 8.0 0.00 0.76 0.76 99 1008.0
20260506214020 7 40 4.8 4.8 0.00 0.76 0.76 99 1008.1
20260506213518 7 39 4.8 4.8 0.00 0.76 0.76 99 1007.7
20260506213015 7 69 4.8 6.4 0.00 0.76 0.76 98 1008.1
20260506212511 7 13 3.2 6.4 0.00 0.76 0.76 98 1008.0
20260506212007 7 38 6.4 9.7 0.00 0.76 0.76 98 1007.7
20260506211502 7 17 6.4 12.9 0.00 0.76 0.76 98 1007.4
20260506211000 7 28 8.0 8.0 0.00 0.76 0.76 99 1007.5
20260506210456 7 5 6.4 8.0 0.00 0.76 0.76 99 1007.5
20260506205953 8 60 3.2 11.3 0.00 0.76 0.76 99 1007.2
20260506205449 8 67 1.6 6.4 0.00 0.76 0.76 99 1006.9
20260506204945 8 35 4.8 8.0 0.00 0.76 0.76 99 1006.8
20260506204443 8 19 3.2 6.4 0.00 0.76 0.76 99 1006.9
20260506203941 8 41 0.0 3.2 0.00 0.76 0.76 99 1006.9
20260506203438 8 38 6.4 9.7 0.00 0.76 0.76 99 1006.6
20260506202935 8 106 6.4 6.4 0.00 0.76 0.76 99 1006.8
20260506202432 8 349 3.2 4.8 0.05 0.76 0.76 99 1006.7
20260506201928 8 42 3.2 4.8 0.05 0.76 0.76 99 1006.5
20260506201426 8 21 4.8 4.8 0.00 0.74 0.74 99 1006.2
20260506200922 8 31 4.8 6.4 0.00 0.74 0.74 99 1006.1
20260506200418 8 312 8.0 14.5 0.00 0.74 0.74 99 1006.2
20260506195915 8 33 4.8 6.4 0.00 0.74 0.74 99 1006.2
20260506195412 8 29 6.4 9.7 0.00 0.74 0.74 99 1006.1
20260506194909 8 47 3.2 4.8 0.00 0.74 0.74 99 1006.1
20260506194406 8 89 3.2 9.7 0.00 0.74 0.74 99 1006.3
20260506193903 8 7 4.8 6.4 0.00 0.74 0.74 99 1006.2
20260506193400 8 32 3.2 6.4 0.05 0.74 0.74 99 1006.2
20260506192856 8 32 3.2 6.4 0.13 0.74 0.74 99 1006.2
20260506192353 8 30 6.4 8.0 0.13 0.74 0.74 99 1006.2
20260506191850 8 6 4.8 9.7 0.18 0.74 0.74 99 1005.8
20260506191346 8 8 3.2 4.8 0.13 0.71 0.71 99 1005.8
20260506190843 9 294 4.8 6.4 0.00 0.71 0.71 99 1006.0
20260506190339 9 306 1.6 4.8 0.00 0.71 0.71 99 1005.9
20260506185837 9 346 3.2 3.2 0.00 0.71 0.71 99 1005.8
20260506185334 9 21 0.0 4.8 0.00 0.71 0.71 99 1005.5
20260506184831 9 67 4.8 6.4 0.00 0.71 0.71 99 1005.4
20260506184328 9 23 3.2 4.8 0.00 0.71 0.71 99 1005.4
20260506183825 9 71 4.8 4.8 0.00 0.71 0.71 99 1005.4
20260506183320 9 32 4.8 4.8 0.00 0.71 0.71 99 1005.4
20260506182818 9 84 3.2 6.4 0.00 0.71 0.71 99 1005.3
20260506182315 9 16 4.8 6.4 0.00 0.71 0.71 99 1005.4
20260506181813 9 48 4.8 8.0 0.00 0.71 0.71 99 1005.2
20260506181310 9 42 4.8 6.4 0.00 0.71 0.71 99 1004.9
20260506180807 9 346 3.2 6.4 0.00 0.71 0.71 99 1005.2
20260506180303 9 49 3.2 3.2 0.00 0.71 0.71 99 1005.2
20260506175759 9 29 4.8 4.8 0.00 0.71 0.71 99 1005.0
20260506175256 9 25 4.8 4.8 0.00 0.71 0.71 99 1005.0
20260506174754 9 43 3.2 6.4 0.00 0.71 0.71 99 1004.9
20260506174251 9 28 4.8 6.4 0.00 0.71 0.71 99 1004.8
20260506173749 9 64 3.2 6.4 0.00 0.71 0.71 99 1004.7
20260506173245 10 62 4.8 6.4 0.00 0.71 0.71 99 1004.5
20260506172742 10 125 3.2 4.8 0.00 0.71 0.71 99 1004.7
20260506172238 10 32 3.2 4.8 0.05 0.71 0.71 99 1004.6
20260506171736 10 97 1.6 4.8 0.05 0.71 0.71 99 1004.7
20260506171233 10 68 3.2 6.4 0.00 0.69 0.69 99 1004.7
20260506170731 10 319 3.2 6.4 0.00 0.69 0.69 99 1004.7
20260506170227 10 28 4.8 6.4 0.00 0.69 0.69 99 1004.5
20260506165726 11 1 4.8 8.0 0.00 0.69 0.69 99 1004.3
20260506165222 11 359 3.2 9.7 0.00 0.69 0.69 99 1004.4
20260506164720 11 10 6.4 9.7 0.00 0.69 0.69 99 1004.5
20260506164217 12 346 1.6 9.7 0.05 0.69 0.69 98 1004.4
20260506163713 13 327 1.6 8.0 0.05 0.69 0.69 99 1004.2
20260506163208 13 248 3.2 3.2 0.00 0.69 0.69 99 1004.1
20260506162704 13 88 3.2 3.2 0.00 0.69 0.69 99 1004.0
20260506162202 13 43 4.8 4.8 0.05 0.69 0.69 99 1004.1
20260506161659 13 130 1.6 6.4 0.05 0.69 0.69 99 1004.0
20260506161155 13 163 3.2 8.0 0.05 0.66 0.66 99 1004.0
20260506160654 13 10 4.8 6.4 0.05 0.66 0.66 99 1004.1
20260506160150 13 184 3.2 6.4 0.00 0.66 0.66 99 1004.1
20260506155649 13 85 1.6 3.2 0.00 0.66 0.66 99 1004.4
20260506155145 13 22 0.0 3.2 0.00 0.66 0.66 99 1004.2
20260506153247 13 102 3.2 8.0 0.00 0.66 0.66 99 1004.4
20260506152744 13 180 0.0 4.8 0.05 0.66 0.66 99 1004.2
20260506152242 13 65 1.6 4.8 0.05 0.66 0.66 99 1004.2
20260506151741 13 88 0.0 3.2 0.00 0.64 0.64 99 1004.1
20260506151237 13 96 1.6 6.4 0.05 0.64 0.64 99 1004.5
20260506150733 13 124 0.0 3.2 0.13 0.64 0.64 99 1004.3
20260506150231 13 256 0.0 3.2 0.05 0.64 0.64 99 1004.3
20260506145728 13 89 0.0 3.2 0.05 0.61 0.61 99 1004.1
20260506145224 13 95 3.2 4.8 0.13 0.61 0.61 99 1004.3
20260506144721 13 104 1.6 6.4 0.13 0.61 0.61 99 1004.5
20260506144218 13 223 3.2 4.8 0.13 0.61 0.61 99 1004.1
20260506143716 13 178 3.2 6.4 0.18 0.58 0.58 99 1004.0
20260506143213 13 190 1.6 4.8 0.13 0.58 0.58 99 1004.2
20260506142712 13 259 0.0 3.2 0.05 0.56 0.56 99 1004.2
20260506142209 13 45 1.6 3.2 0.13 0.56 0.56 99 1004.3
20260506141707 13 181 0.0 4.8 0.05 0.56 0.56 99 1004.3
20260506141205 13 101 1.6 1.6 0.05 0.53 0.53 99 1004.3
20260506140703 13 284 0.0 3.2 0.05 0.53 0.53 99 1004.4
20260506140159 12 53 3.2 3.2 0.13 0.53 0.53 99 1004.5
20260506135656 12 116 0.0 3.2 0.18 0.53 0.53 99 1004.5
20260506135152 12 221 0.0 3.2 0.05 0.51 0.51 99 1004.5
20260506134649 12 200 0.0 3.2 0.13 0.51 0.51 99 1004.5
20260506134145 11 276 3.2 3.2 0.13 0.48 0.48 99 1004.6
20260506133642 11 13 0.0 1.6 0.18 0.48 0.48 99 1004.4
20260506133139 11 323 1.6 1.6 0.18 0.46 0.46 99 1004.9
20260506132637 11 64 3.2 3.2 0.23 0.43 0.43 99 1004.9
20260506132133 11 286 1.6 4.8 0.30 0.43 0.43 99 1004.9
20260506131631 11 160 0.0 3.2 0.30 0.41 0.41 99 1005.2
20260506131127 11 12 0.0 4.8 0.30 0.38 0.38 99 1005.1
20260506130624 10 314 1.6 4.8 0.23 0.33 0.33 99 1005.2
20260506130122 10 164 3.2 4.8 0.30 0.33 0.33 99 1005.4
20260506125620 10 28 0.0 3.2 0.36 0.28 0.28 99 1005.4
20260506125117 10 82 3.2 4.8 0.43 0.28 0.28 99 1005.4
20260506124615 10 76 1.6 3.2 0.30 0.23 0.23 99 1005.3
20260506124112 10 116 1.6 3.2 0.13 0.20 0.20 99 1005.2
20260506123610 10 72 1.6 3.2 0.23 0.18 0.18 99 1005.0
20260506123108 10 72 3.2 4.8 0.18 0.18 0.18 99 1004.9
20260506122604 10 92 3.2 4.8 0.13 0.15 0.15 99 1005.0
20260506122103 10 122 0.0 3.2 0.13 0.15 0.15 99 1005.0
20260506121600 10 62 1.6 3.2 0.05 0.13 0.13 99 1004.9
20260506121056 10 94 1.6 3.2 0.00 0.10 0.10 99 1004.8
20260506120554 10 304 0.0 3.2 0.00 0.10 0.10 99 1004.8
20260506120051 10 27 3.2 3.2 0.05 0.10 0.10 99 1004.8
20260506115549 10 54 1.6 3.2 0.05 0.10 0.10 99 1004.9
20260506115047 10 54 0.0 3.2 0.00 0.10 0.10 99 1005.0
20260506114544 10 79 3.2 4.8 0.00 0.10 0.10 99 1005.2
20260506114043 10 96 3.2 4.8 0.13 0.10 0.10 99 1005.4
20260506113540 10 51 1.6 3.2 0.13 0.10 0.10 99 1005.5
20260506113037 10 50 1.6 3.2 0.13 0.08 0.08 99 1005.5
20260506112534 10 67 1.6 3.2 0.05 0.08 0.08 99 1005.4
20260506112031 10 84 3.2 4.8 0.00 0.05 0.05 99 1005.5
20260506111529 10 71 1.6 3.2 0.00 0.05 0.05 99 1005.7
20260506111026 10 66 3.2 3.2 0.00 0.05 0.05 99 1005.6
20260506110524 10 89 3.2 4.8 0.00 0.05 0.05 99 1005.5
20260506110021 10 54 3.2 3.2 0.00 0.05 0.05 99 1005.5
20260506105517 10 33 4.8 6.4 0.05 0.05 0.05 99 1005.5
20260506105014 10 78 3.2 3.2 0.00 0.05 0.05 99 1005.3
20260506104512 10 53 3.2 4.8 0.00 0.05 0.05 99 1005.3
20260506104010 10 52 3.2 4.8 0.00 0.05 0.05 99 1005.3
20260506103507 10 50 3.2 4.8 0.00 0.05 0.05 99 1005.3
20260506103003 10 40 3.2 4.8 0.05 0.05 0.05 99 1005.3
20260506102502 10 49 3.2 4.8 0.05 0.05 0.05 99 1005.3
20260506101959 10 37 4.8 6.4 0.00 0.05 0.05 99 1005.3
20260506101455 10 43 3.2 4.8 0.05 0.05 0.05 99 1005.1
20260506100952 10 50 3.2 4.8 0.05 0.05 0.05 99 1005.2
20260506100451 10 42 3.2 4.8 0.00 0.03 0.03 99 1004.9
20260506095948 10 41 3.2 3.2 0.00 0.03 0.03 99 1005.1
20260506095447 10 55 3.2 4.8 0.00 0.03 0.03 99 1005.0
20260506094942 10 70 4.8 4.8 0.05 0.03 0.03 99 1005.0
20260506094441 10 71 3.2 4.8 0.05 0.03 0.03 99 1005.0
20260506093938 10 71 3.2 4.8 0.00 0.03 0.03 99 1005.0
20260506093436 10 68 3.2 3.2 0.00 0.03 0.03 99 1005.1
20260506092934 10 104 3.2 3.2 0.00 0.03 0.03 99 1004.9
20260506092432 10 44 4.8 4.8 0.00 0.03 0.03 99 1005.1
20260506091928 10 70 3.2 4.8 0.00 0.03 0.03 99 1005.2
20260506091426 10 69 0.0 3.2 0.05 0.03 0.03 99 1005.2
20260506090923 10 48 1.6 3.2 0.05 0.03 0.03 99 1005.1
20260506090421 10 36 3.2 4.8 0.00 0.00 0.00 98 1005.1
20260506085917 10 78 3.2 3.2 0.00 0.00 0.00 98 1005.4
20260506085414 10 83 3.2 3.2 0.05 0.00 0.00 98 1005.4
20260506084910 10 84 3.2 3.2 0.05 0.00 0.00 98 1005.6
20260506084407 10 31 4.8 4.8 0.00 0.00 0.00 98 1005.6
20260506083903 10 52 1.6 3.2 0.00 0.00 0.00 98 1005.7
20260506083401 10 103 3.2 4.8 0.00 0.00 0.00 97 1005.8
20260506082858 10 23 0.0 4.8 0.00 0.00 0.00 97 1005.8
20260506082355 10 119 0.0 3.2 0.00 0.00 0.00 97 1005.8
20260506081850 10 86 3.2 3.2 0.00 0.00 0.00 97 1005.6
20260506081349 10 96 3.2 3.2 0.00 0.00 0.00 97 1005.7
20260506080846 10 80 3.2 3.2 0.00 0.00 0.00 97 1005.8
20260506080343 10 36 3.2 4.8 0.00 0.00 0.00 97 1005.8
20260506073327 10 78 3.2 4.8 0.00 0.00 0.00 97 1005.8
20260506072824 10 72 4.8 6.4 0.00 0.00 0.00 97 1005.6
20260506072321 10 35 3.2 4.8 0.00 0.00 0.00 97 1005.7
20260506071819 10 68 3.2 4.8 0.00 0.00 0.00 97 1005.6
20260506071317 10 75 3.2 4.8 0.00 0.00 0.00 97 1005.9
20260506070813 10 51 3.2 4.8 0.00 0.00 0.00 97 1005.8
20260506070310 10 43 4.8 4.8 0.00 0.00 0.00 97 1005.8
20260506062248 10 80 3.2 3.2 0.00 0.00 0.00 96 1006.4
20260506061743 10 92 6.4 6.4 0.00 0.00 0.00 96 1006.6
20260506061241 10 295 8.0 8.0 0.00 0.00 0.00 97 1006.6
20260506060739 10 86 8.0 8.0 0.00 0.00 0.00 97 1006.5
20260506060236 10 299 3.2 4.8 0.00 0.00 0.00 97 1006.6
20260506051208 10 21 3.2 4.8 0.00 0.00 0.00 96 1007.2
20260506050707 10 50 1.6 3.2 0.00 0.00 0.00 96 1007.2
20260506050203 10 84 0.0 3.2 0.00 0.00 0.00 96 1007.6
20260506044654 10 65 1.6 1.6 0.00 0.00 0.00 95 1007.7
20260506044151 10 81 4.8 4.8 0.00 0.00 0.00 95 1007.7
20260506043648 10 57 1.6 3.2 0.00 0.00 0.00 95 1007.6
20260506043146 10 57 1.6 3.2 0.00 0.00 0.00 95 1007.6
20260506042645 10 70 0.0 3.2 0.00 0.00 0.00 94 1007.6
20260506042143 10 74 3.2 3.2 0.00 0.00 0.00 94 1007.5
20260506041641 10 41 1.6 3.2 0.00 0.00 0.00 94 1007.6
20260506041137 10 18 3.2 3.2 0.00 0.00 0.00 94 1007.5
20260506040635 10 50 1.6 3.2 0.00 0.00 0.00 93 1007.7
20260506040132 11 57 0.0 1.6 0.00 0.00 0.00 92 1007.6
20260506035629 11 113 0.0 1.6 0.00 0.10 0.10 93 1007.8
20260506035125 10 338 0.0 3.2 0.00 0.10 0.10 93 1007.8
20260506034622 11 72 3.2 3.2 0.00 0.10 0.10 92 1007.6
20260506034119 11 13 1.6 3.2 0.00 0.10 0.10 91 1007.9
20260506033617 11 108 3.2 3.2 0.00 0.10 0.10 91 1008.0
20260506033113 11 89 3.2 3.2 0.00 0.10 0.10 90 1008.1
20260506032611 11 14 1.6 1.6 0.00 0.10 0.10 90 1008.0
20260506032108 11 65 1.6 3.2 0.00 0.10 0.10 89 1008.2
20260506031605 11 84 1.6 3.2 0.00 0.10 0.10 89 1008.0
20260506031101 11 75 1.6 1.6 0.00 0.10 0.10 88 1008.2
20260506030600 12 78 3.2 4.8 0.00 0.10 0.10 87 1008.0
20260506030057 12 19 4.8 6.4 0.00 0.10 0.10 85 1007.9
20260506025554 12 26 6.4 6.4 0.00 0.10 0.10 85 1008.0
20260506025050 12 97 3.2 6.4 0.00 0.10 0.10 86 1007.7
20260506024547 12 17 3.2 6.4 0.00 0.10 0.10 85 1007.8
20260506024043 13 66 4.8 6.4 0.00 0.10 0.10 85 1007.9
20260506023539 13 44 6.4 8.0 0.00 0.10 0.10 86 1007.8
20260506023037 13 42 3.2 6.4 0.00 0.10 0.10 86 1007.8
20260506022534 13 16 6.4 8.0 0.00 0.10 0.10 86 1008.0
20260506022032 13 35 6.4 6.4 0.00 0.10 0.10 85 1007.9
20260506021529 14 31 6.4 9.7 0.00 0.10 0.10 85 1007.8
20260506021026 14 32 4.8 6.4 0.00 0.10 0.10 86 1007.8
20260506020524 15 32 6.4 8.0 0.00 0.10 0.10 86 1007.8
20260506020021 15 36 6.4 9.7 0.00 0.10 0.10 90 1007.7
20260506015519 14 79 3.2 3.2 0.00 0.10 0.10 92 1007.5
20260506015015 14 27 3.2 3.2 0.00 0.10 0.10 92 1007.6
20260506014513 14 27 3.2 4.8 0.00 0.10 0.10 92 1007.6
20260506014009 14 41 3.2 3.2 0.00 0.10 0.10 93 1007.4
20260506013507 14 53 3.2 4.8 0.00 0.10 0.10 92 1007.1
20260506013003 15 83 3.2 3.2 0.00 0.10 0.10 91 1006.9
20260506012459 15 34 0.0 3.2 0.00 0.10 0.10 91 1006.8
20260506011956 15 340 3.2 6.4 0.00 0.10 0.10 89 1006.7
20260506011453 15 19 0.0 4.8 0.00 0.10 0.10 91 1006.6
20260506010950 15 51 1.6 3.2 0.00 0.10 0.10 90 1006.8
20260506010449 16 97 3.2 6.4 0.00 0.10 0.10 89 1006.9
20260506005945 15 99 1.6 6.4 0.00 0.10 0.10 93 1006.8
20260506005443 15 71 3.2 3.2 0.00 0.10 0.10 95 1006.4
20260506004938 15 50 3.2 4.8 0.00 0.10 0.10 95 1006.2
20260506004436 15 101 3.2 3.2 0.00 0.10 0.10 95 1006.0
20260506003932 15 89 1.6 4.8 0.00 0.10 0.10 95 1006.0
20260506003429 15 33 4.8 4.8 0.00 0.10 0.10 95 1005.9
20260506002925 15 34 4.8 4.8 0.00 0.10 0.10 95 1005.7
20260506002421 15 61 3.2 3.2 0.00 0.10 0.10 94 1005.8
20260506001916 15 57 1.6 3.2 0.00 0.10 0.10 94 1005.7
20260506001414 15 52 3.2 3.2 0.00 0.10 0.10 94 1005.5
20260506000911 15 345 0.0 1.6 0.00 0.10 0.10 94 1005.4
20260506000409 16 332 1.6 3.2 0.00 0.10 0.10 93 1005.4
20260505235905 16 50 1.6 3.2 0.00 0.10 0.10 93 1005.7
20260505235403 16 347 0.0 1.6 0.00 0.10 0.10 93 1005.4
20260505234900 16 38 0.0 0.0 0.00 0.10 0.10 93 1005.3
20260505234358 16 73 1.6 1.6 0.00 0.10 0.10 93 1005.4
20260505233854 16 44 0.0 1.6 0.00 0.10 0.10 93 1005.3
20260505233352 16 67 0.0 1.6 0.00 0.10 0.10 92 1005.5
20260505232849 16 58 1.6 3.2 0.00 0.10 0.10 91 1005.5
20260505232347 17 37 0.0 1.6 0.00 0.10 0.10 90 1005.3
20260505231843 17 33 1.6 3.2 0.00 0.10 0.10 90 1005.5
20260505231341 17 322 0.0 1.6 0.00 0.10 0.10 91 1005.3